Regional Weather Roundup
Issued by NWS Columbia, SC

Home | Current Version | Previous Version | Text Only | Print | Product List | Glossary On
Versions: 1 2 3 4 5 6 7 8 9 10 11 12 13 14 15 16 17 18 19 20 21 22 23 24 25 26 27 28 29 30 31 32 33 34 35 36 37 38 39 40 41 42 43 44 45 46 47 48 49 50
000
ASUS42 KCAE 221310
RWRCAE
REGIONAL WEATHER ROUNDUP
NATIONAL WEATHER SERVICE COLUMBIA SC
800 AM EST FRI NOV 22 2019

NOTE: "FAIR" INDICATES FEW OR NO CLOUDS BELOW 12,000 FEET WITH NO
SIGNIFICANT WEATHER AND/OR OBSTRUCTIONS TO VISIBILITY.

NOT ALL STATIONS ARE QUALITY CONTROLLED BY THE NATIONAL
WEATHER SERVICE. USE DATA WITH CAUTION...ESPECIALLY
DEWPOINT OBSERVATIONS.

SCZ001>056-GAZ040-063>065-077-221400-
...UPSTATE SOUTH CAROLINA...

CITY           SKY/WX    TMP DP  RH WIND       PRES   REMARKS
ANDERSON       FAIR      47  42  83 SW7       30.11R
LIBERTY        CLOUDY    48  46  90 SW5       30.09R
SPARTANBURG    MOCLDY    48  41  76 SW6       30.07F
CLEMSON        FAIR      49  41  74 W5        30.11R
GREENVILLE     MOCLDY    53  43  68 SW9       30.10R
GREENWOOD      MOCLDY    49  46  90 W5        30.13R
GREER          MOCLDY    52  41  66 SW9       30.08S
ROCK HILL      CLOUDY    53  41  63 SW9       30.08R
CHESTER        CLOUDY    46  43  87 CALM      30.11R
LAURENS        PTSUNNY   46  43  87 SW8       30.11R


...CENTRAL SOUTH CAROLINA...

CITY           SKY/WX    TMP DP  RH WIND       PRES   REMARKS
COLUMBIA APT   FAIR      49  44  83 W3        30.13R
COLUMBIA OWENS FAIR      46  44  93 CALM      30.14R
MCENTIRE ANGB  MOCLDY    48  46  93 SW5       30.13S
ORANGEBURG     FAIR      44  42  93 CALM      30.14R
SUMTER SHAW    MOCLDY    50  45  82 SW6       30.12S
NEWBERRY       FAIR      50  48  93 SW8       30.14S
AIKEN          FAIR      48  48 100 SW8       30.16S
BARNWELL       FAIR      43  41  93 CALM      30.15R
MANNING        FAIR      43  43 100 CALM      30.13S
CAMDEN         PTSUNNY   48  43  81 S6        30.12R
LANCASTER      CLOUDY    46  45  93 SW7       30.10S
WINNSBORO      FAIR      50  46  87 SW6       30.12R


...EASTERN AND COASTAL SOUTH CAROLINA...

CITY           SKY/WX    TMP DP  RH WIND       PRES   REMARKS
MYRTLE BEACH   FAIR      51  46  83 W7        30.14R
N MYRTLE BCH   FAIR      52  46  80 W7        30.12S
CONWAY         FAIR      43  41  93 CALM      30.13R
MARION         FAIR      45  43  93 SW3       30.12S
HARTSVILLE     CLOUDY    46  43  87 CALM      30.11R
FLORENCE       CLOUDY    49  44  83 SW8       30.12S
DARLINGTON     CLOUDY    46  43  89 SW7       30.11S
CHARLESTON APT FAIR      48  45  89 CALM      30.14S
MOUNT PLEASANT FAIR      45  45 100 CALM      30.14S
WALTERBORO     FAIR      43  41  93 CALM      30.15S
BEAUFORT       FAIR      50  47  89 CALM      30.15R
HILTON HEAD    SUNNY     48  46  93 CALM      30.16


...EASTERN GEORGIA...

CITY           SKY/WX    TMP DP  RH WIND       PRES   REMARKS
AUGUSTA BUSH F FAIR      43  41  93 CALM      30.15R
AUGUSTA DANIEL FAIR      51  47  86 SW3       30.15R
THOMSON        FAIR      45  45 100 W3        30.14R FOG
CLAXTON        FAIR      44  43  97 CALM      30.16R FOG
SYLVANIA       FAIR      45  43  94 CALM      30.16R
STATESBORO     FAIR      45  44  95 CALM      30.16R
SAVANNAH       PTSUNNY   49  48  97 CALM      30.15R


...SOUTHERN NORTH CAROLINA...

CITY           SKY/WX    TMP DP  RH WIND       PRES   REMARKS
CHARLOTTE      CLOUDY    54  41  61 SW9       30.07S
MONROE         CLOUDY    51  41  68 SW14      30.08R
WADESBORO        N/A     52  42  68 MISG      30.08S
ROCKINGHAM     FAIR      47  40  74 S6        30.08S
RUTHERFORDTON  CLOUDY    46  43  87 N3        30.08R
ASHEVILLE      CLOUDY    47  39  74 N8        30.09R

$$



USA.gov is the U.S. government's official web portal to all federal, state and local government web resources and services.